Location: Baumgartsau
(48.4586°N, 14.0864°E)
Time: 12:46:06
(UTC+00:00)

BREEZE M DEB (TANK) - Pass Details

Date: 11 August 2020
Orbit: 304 x 11869 km, 49.5° (Epoch: 20 September)

Event Time Altitude Azimuth Distance (km) Brightness Sun altitude
Exits shadow 21:37:27 10° 126° (SE) 10,050 8.2 -23.5°
Maximum altitude 21:41:02 10° 121° (ESE) 9,383 8.1 -23.7°
Drops below altitude 10° 21:45:14 10° 113° (ESE) 8,617 7.9 -24.0°
Sets 21:57:56 0° 82° (E) 6,861 7.8 -24.7°
